Regional Weather Roundup
Issued by NWS

Home | Current Version | Previous Version | Text Only | Print | Product List | Glossary On
Versions: 1 2 3 4 5 6 7 8 9 10 11 12 13 14 15 16 17 18 19 20 21 22 23 24 25 26 27 28 29 30 31 32 33 34 35 36 37 38 39 40 41 42 43 44 45 46 47 48 49 50
000
ASUS43 KIND 221400
RWRIN

WEATHER ROUNDUP FOR INDIANA
NATIONAL WEATHER SERVICE INDIANAPOLIS IN
900 AM EST WED NOV 22 2017

NOTE: "FAIR" INDICATES FEW OR NO CLOUDS BELOW 12,000 FEET WITH NO
SIGNIFICANT WEATHER AND/OR OBSTRUCTIONS TO VISIBILITY.

* - STATION DOES NOT REPORT WEATHER SUCH AS PRECIPITATION OR FOG.

+ - STATION NOT QUALITY CONTROLLED BY THE NATIONAL WEATHER SERVICE.
    USE DATA WITH CAUTION...ESPECIALLY DEWPOINT AND RELATIVE
    HUMIDITY OBSERVATIONS.

INZ001>003-010>013-019-020-221500-
NORTHWEST INDIANA

CITY           SKY/WX    TMP DP  RH WIND       PRES   REMARKS
GARY /AIRPORT/ MOSUNNY   27  16  63 W8        30.34S WCI  18
KNOX *+        CLOUDY    32  23  69 W3        30.30S
MICHIGAN CITY+ CLOUDY    32  23  69 CALM      30.30S
MONTICELLO +   CLOUDY    26  19  76 NW8       30.32S WCI  17
RENSSELAER +   MOSUNNY   27  18  69 W7        30.34S WCI  19

$$

LMZ046-743>745-221500-
SOUTHERN LAKE MICHIGAN

STATION/POSITION TIME  TEMP    WIND        PRES    WAVE
                       AIR SEA DIR/SP/G            HT
                 (UTC) (F)     (DEG/KT/KT) (MB)    (FT)
BURNS HARBOR     1340   32     340/  7/ 12 1026.8S
MICHIGAN CITY    1330   33     310/  8/ 10   N/A

$$

INZ004-005-014>016-021>024-221500-
NORTH CENTRAL INDIANA

CITY           SKY/WX    TMP DP  RH WIND       PRES   REMARKS
ELKHART        CLOUDY    30  21  69 NE5       30.28S WCI  25
GOSHEN         CLOUDY    31  20  63 NE6       30.29R WCI  25
PERU/GRISSOM   CLOUDY    28  21  77 NW7       30.31R WCI  20
SOUTH BEND     CLOUDY    31  24  75 NE5       30.29R WCI  26
WARSAW +       CLOUDY    32  23  69 N7        30.29R WCI  26

$$

INZ006>009-017-018-025>027-221500-
NORTHEAST INDIANA

CITY           SKY/WX    TMP DP  RH WIND       PRES   REMARKS
AUBURN +       CLOUDY    32  21  64 N8        30.28R WCI  25
FORT WAYNE     CLOUDY    34  24  67 N13       30.29R WCI  25
KENDALLVILLE + CLOUDY    30  20  68 N9        30.27R WCI  21

$$

INZ028-029-035-036-043>045-051>053-221500-
WEST CENTRAL INDIANA

CITY           SKY/WX    TMP DP  RH WIND       PRES   REMARKS
CRAWFORDSVL +  SUNNY     24  18  80 MISG      30.33R
GREENCASTLE +  SUNNY     27  18  69 NW3       30.34R
LAFAYETTE      SUNNY     25  18  74 VRB5      30.35R WCI  19
TERRE HAUTE    SUNNY     27  18  69 N8        30.37R WCI  19

$$

INZ030>032-037>040-046>048-054>057-064-065-221500-
CENTRAL INDIANA

CITY           SKY/WX    TMP DP  RH WIND       PRES   REMARKS
COLUMBUS       SUNNY     27  21  80 NW7       30.33R WCI  19
FRANKFORT +    MOSUNNY   28  22  77 NW8       30.33S WCI  20
GREENWOOD *+   MOSUNNY   31  23  73 NW5       30.32R WCI  26
INDIANAPOLIS   MOSUNNY   27  20  75 NW12      30.33R WCI  17
-EAGLE CREEK   SUNNY     27  19  72 NW12      30.32R WCI  17
KOKOMO +       CLOUDY    28  22  78 NW8       30.32R WCI  20
MT COMFORT *+  MOSUNNY   27  25  93 NW9       30.31R WCI  17
SHELBYVILLE    MOSUNNY   28  21  75 NW8       30.31R WCI  20

$$

INZ033-034-041-042-049-050-058-059-221500-
EAST CENTRAL INDIANA

CITY           SKY/WX    TMP DP  RH WIND       PRES   REMARKS
MUNCIE         SUNNY     30  23  75 NW9       30.29R WCI  22
RICHMOND +     MOSUNNY   30  27  86 NW7       30.26R WCI  23

$$

INZ060-061-067>069-081>083-085>088-221500-
SOUTHWEST INDIANA

CITY           SKY/WX    TMP DP  RH WIND       PRES   REMARKS
EVANSVILLE     CLOUDY    29  23  78 N6        30.38R WCI  23
HUNTINGBURG +  SUNNY     28  24  85 N6        30.37R WCI  22

$$

INZ062-063-066-070>080-084-089>092-221500-
SOUTH CENTRAL AND SOUTHEAST INDIANA

CITY           SKY/WX    TMP DP  RH WIND       PRES   REMARKS
BLOOMINGTON    SUNNY     27  18  69 VRB6      30.33R WCI  20
MADISON *+     MOSUNNY   32  23  69 N6        30.33R WCI  26
SEYMOUR +      SUNNY     30  23  74 NW6       30.33R WCI  24

$$





USA.gov is the U.S. government's official web portal to all federal, state and local government web resources and services.